Location: downtown San Diego
(32.7310°N, 117.1990°W)
Time: 22:21:09
(UTC-07:00)

Meteor 1-21 - Pass Details

Date: 14 June 2018
Orbit: 842 x 890 km, 81.2° (Epoch: 20 August)

Event Time Altitude Azimuth Distance (km) Brightness Sun altitude
Rises 20:29:50 0° 179° (S) 3,400 7.0 -6.6°
Reaches altitude 10° 20:32:15 10° 177° (S) 2,474 6.3 -7.0°
Maximum altitude 20:37:49 68° 95° (E) 923 4.2 -8.0°
Drops below altitude 10° 20:43:29 10° 14° (NNE) 2,519 7.0 -8.9°
Sets 20:45:57 0° 12° (NNE) 3,468 7.7 -9.4°
